ACA2250 CYHZ-CYQM

Flight info

Callsign ACA2250
Flight time 0h 22m
Altitude 14000
Route YHZ
Aircraft A320/M-SDE3FGHIRWY/LB1

Departure

Time 2026-04-24 22:19
Airport Halifax / Stanfield International Airport (CYHZ)

Arrival

Time 2026-04-24 22:41
Airport Greater Moncton Roméo LeBlanc International Airport (CYQM)
Time Latitude Longitude Altitude Speed Heading
2026-04-24 21:59 44.88613 -63.51368 452 ft 0 kts 303°
2026-04-24 22:11 44.88607 -63.51355 433 ft 2 kts 303°
2026-04-24 22:12 44.88598 -63.51336 426 ft 2 kts 303°
2026-04-24 22:12 44.88589 -63.51316 453 ft 2 kts 303°
2026-04-24 22:12 44.88574 -63.51283 451 ft 4 kts 303°
2026-04-24 22:12 44.88566 -63.51244 451 ft 4 kts 262°
2026-04-24 22:13 44.88568 -63.51229 452 ft 0 kts 261°
2026-04-24 22:13 44.88554 -63.51231 451 ft 7 kts 170°
2026-04-24 22:14 44.88460 -63.51203 451 ft 17 kts 171°
2026-04-24 22:14 44.88356 -63.51286 450 ft 22 kts 219°
2026-04-24 22:14 44.88175 -63.51467 452 ft 40 kts 216°
2026-04-24 22:14 44.87916 -63.51724 452 ft 47 kts 215°
2026-04-24 22:15 44.87644 -63.51992 452 ft 48 kts 215°
2026-04-24 22:15 44.87370 -63.52265 452 ft 48 kts 214°
2026-04-24 22:15 44.87161 -63.52466 452 ft 36 kts 214°
2026-04-24 22:15 44.86951 -63.52677 452 ft 38 kts 216°
2026-04-24 22:16 44.86774 -63.52907 451 ft 23 kts 231°
2026-04-24 22:16 44.86678 -63.52922 452 ft 17 kts 130°
2026-04-24 22:16 44.86637 -63.52843 451 ft 0 kts 124°
2026-04-24 22:17 44.86626 -63.52821 450 ft 8 kts 124°
2026-04-24 22:17 44.86588 -63.52736 449 ft 12 kts 108°
2026-04-24 22:18 44.86645 -63.52648 448 ft 15 kts 34°
2026-04-24 22:18 44.86804 -63.52491 449 ft 59 kts 34°
2026-04-24 22:18 44.87333 -63.51969 448 ft 125 kts 35°
2026-04-24 22:18 44.88164 -63.51143 670 ft 154 kts 36°
2026-04-24 22:19 44.89026 -63.50231 1441 ft 157 kts 37°
2026-04-24 22:19 44.89900 -63.49284 2186 ft 160 kts 37°
2026-04-24 22:19 44.90832 -63.48260 2592 ft 180 kts 38°
2026-04-24 22:19 44.91921 -63.47273 3079 ft 192 kts 21°
2026-04-24 22:20 44.93323 -63.47194 3268 ft 222 kts 344°
2026-04-24 22:20 44.94695 -63.48394 3685 ft 244 kts 324°
2026-04-24 22:20 44.95975 -63.50043 4533 ft 252 kts 320°
2026-04-24 22:20 44.97225 -63.51790 5491 ft 254 kts 318°
2026-04-24 22:21 44.98476 -63.53581 6393 ft 258 kts 315°
2026-04-24 22:21 44.99752 -63.55379 7266 ft 260 kts 316°
2026-04-24 22:21 45.01058 -63.57176 8116 ft 264 kts 317°
2026-04-24 22:21 45.02398 -63.58981 8982 ft 267 kts 317°
2026-04-24 22:22 45.03582 -63.60557 9742 ft 270 kts 317°
2026-04-24 22:22 45.04974 -63.62394 10417 ft 279 kts 317°
2026-04-24 22:22 45.06443 -63.64318 10667 ft 303 kts 318°
2026-04-24 22:22 45.08049 -63.66420 10877 ft 326 kts 318°
2026-04-24 22:23 45.09777 -63.68679 11143 ft 345 kts 318°
2026-04-24 22:23 45.11565 -63.71020 11725 ft 353 kts 318°
2026-04-24 22:23 45.13364 -63.73376 12396 ft 359 kts 319°
2026-04-24 22:23 45.15211 -63.75798 13080 ft 364 kts 319°
2026-04-24 22:24 45.17083 -63.78257 13740 ft 369 kts 319°
2026-04-24 22:24 45.18979 -63.80747 13993 ft 372 kts 319°
2026-04-24 22:24 45.20880 -63.83248 14054 ft 373 kts 319°
2026-04-24 22:24 45.22788 -63.85759 14058 ft 372 kts 319°
2026-04-24 22:25 45.24043 -63.87409 14063 ft 372 kts 319°
2026-04-24 22:25 45.26561 -63.90731 14061 ft 372 kts 319°
2026-04-24 22:25 45.28460 -63.93241 14067 ft 372 kts 319°
2026-04-24 22:25 45.30353 -63.95746 14069 ft 372 kts 319°
2026-04-24 22:26 45.32236 -63.98242 14067 ft 372 kts 319°
2026-04-24 22:26 45.33498 -63.99916 14022 ft 373 kts 319°
2026-04-24 22:26 45.35454 -64.02506 13747 ft 391 kts 319°
2026-04-24 22:26 45.37450 -64.05154 13475 ft 392 kts 318°
2026-04-24 22:27 45.39447 -64.07808 13197 ft 391 kts 318°
2026-04-24 22:27 45.41426 -64.10443 12917 ft 389 kts 318°
2026-04-24 22:27 45.43397 -64.13071 12645 ft 387 kts 318°
2026-04-24 22:27 45.45359 -64.15685 12374 ft 385 kts 318°
2026-04-24 22:28 45.47306 -64.18279 12108 ft 383 kts 318°
2026-04-24 22:28 45.49248 -64.20869 11842 ft 381 kts 318°
2026-04-24 22:28 45.51181 -64.23449 11569 ft 379 kts 317°
2026-04-24 22:28 45.53074 -64.25979 11311 ft 376 kts 317°
2026-04-24 22:29 45.56882 -64.31073 10795 ft 371 kts 317°
2026-04-24 22:29 45.58733 -64.33559 10532 ft 357 kts 317°
2026-04-24 22:29 45.60490 -64.35921 10280 ft 344 kts 317°
2026-04-24 22:30 45.62208 -64.38234 10034 ft 332 kts 317°
2026-04-24 22:30 45.63864 -64.40464 9847 ft 319 kts 317°
2026-04-24 22:30 45.65449 -64.42598 9711 ft 305 kts 317°
2026-04-24 22:30 45.66967 -64.44640 9575 ft 293 kts 317°
2026-04-24 22:31 45.68403 -64.46576 9425 ft 281 kts 317°
2026-04-24 22:31 45.69803 -64.48467 9294 ft 272 kts 317°
2026-04-24 22:31 45.71172 -64.50319 9157 ft 270 kts 317°
2026-04-24 22:31 45.72541 -64.52167 9017 ft 269 kts 317°
2026-04-24 22:32 45.73906 -64.54012 8885 ft 269 kts 317°
2026-04-24 22:32 45.75248 -64.55828 8748 ft 268 kts 317°
2026-04-24 22:32 45.76601 -64.57660 8617 ft 268 kts 317°
2026-04-24 22:32 45.77956 -64.59493 8318 ft 269 kts 317°
2026-04-24 22:33 45.79319 -64.61337 7877 ft 269 kts 317°
2026-04-24 22:33 45.80677 -64.63180 7479 ft 267 kts 317°
2026-04-24 22:33 45.82028 -64.65014 7040 ft 266 kts 317°
2026-04-24 22:33 45.83360 -64.66822 6692 ft 263 kts 316°
2026-04-24 22:34 45.84676 -64.68608 6079 ft 259 kts 317°
2026-04-24 22:34 45.85964 -64.70357 5488 ft 255 kts 317°
2026-04-24 22:34 45.87245 -64.72105 4971 ft 251 kts 316°
2026-04-24 22:34 45.88473 -64.73793 4691 ft 234 kts 316°
2026-04-24 22:35 45.89592 -64.75337 4559 ft 213 kts 317°
2026-04-24 22:35 45.90613 -64.76753 4456 ft 193 kts 316°
2026-04-24 22:35 45.91542 -64.78049 4081 ft 186 kts 317°
2026-04-24 22:35 45.92464 -64.79346 3664 ft 183 kts 317°
2026-04-24 22:36 45.93380 -64.80649 3356 ft 183 kts 317°
2026-04-24 22:36 45.94282 -64.81941 3014 ft 182 kts 316°
2026-04-24 22:36 45.95179 -64.83227 3007 ft 185 kts 317°
2026-04-24 22:36 45.96197 -64.84316 2999 ft 183 kts 342°
2026-04-24 22:37 45.97460 -64.84357 3016 ft 185 kts
2026-04-24 22:37 45.98714 -64.83938 3010 ft 185 kts 13°
2026-04-24 22:37 45.99929 -64.83329 3004 ft 186 kts 29°
2026-04-24 22:37 46.00933 -64.82130 2957 ft 189 kts 40°
2026-04-24 22:38 46.01908 -64.80846 2747 ft 189 kts 40°
2026-04-24 22:38 46.02874 -64.79577 2516 ft 188 kts 40°
2026-04-24 22:38 46.03824 -64.78330 2258 ft 187 kts 40°
2026-04-24 22:38 46.04765 -64.77095 1987 ft 176 kts 40°
2026-04-24 22:39 46.05626 -64.75964 1781 ft 157 kts 40°
2026-04-24 22:39 46.06400 -64.74957 1533 ft 143 kts 39°
2026-04-24 22:39 46.07117 -64.74013 1347 ft 136 kts 41°
2026-04-24 22:39 46.07805 -64.73106 1131 ft 134 kts 40°
2026-04-24 22:40 46.08495 -64.72213 948 ft 132 kts 41°
2026-04-24 22:40 46.09171 -64.71314 739 ft 132 kts 40°
2026-04-24 22:40 46.09841 -64.70428 521 ft 130 kts 40°
2026-04-24 22:40 46.10510 -64.69542 309 ft 129 kts 40°
2026-04-24 22:41 46.11155 -64.68702 235 ft 114 kts 41°
2026-04-24 22:41 46.11561 -64.68167 237 ft 49 kts 43°
2026-04-24 22:41 46.11775 -64.67887 233 ft 26 kts 43°
2026-04-24 22:41 46.11884 -64.67897 231 ft 15 kts 314°
2026-04-24 22:42 46.11909 -64.68028 230 ft 16 kts 231°
2026-04-24 22:42 46.11817 -64.68144 230 ft 19 kts 220°
2026-04-24 22:42 46.11729 -64.68260 235 ft 20 kts 222°